| time (UTC) | temp F | wind direction | speed knots | gust knots | rain 1hr in | rain 24hr in | rain mn in | humidity % | barometer mb |
| 20260905182853 | 93 | 83 | 6.1 | 7.0 | 0.00 | 0.00 | 0.00 | 48 | 1015.4 |
| 20260905182347 | 92 | 120 | 5.2 | 6.1 | 0.00 | 0.00 | 0.00 | 51 | 1015.5 |
| 20260905181842 | 92 | 165 | 1.7 | 2.6 | 0.00 | 0.00 | 0.00 | 50 | 1015.7 |
| 20260905181337 | 93 | 206 | 5.2 | 6.1 | 0.00 | 0.00 | 0.00 | 47 | 1015.8 |
| 20260905180836 | 92 | 172 | 5.2 | 7.0 | 0.00 | 0.00 | 0.00 | 50 | 1015.8 |
| 20260905180331 | 92 | 84 | 3.5 | 3.5 | 0.00 | 0.00 | 0.00 | 53 | 1016.0 |
| 20260905175825 | 92 | 245 | 2.6 | 2.6 | 0.00 | 0.00 | 0.00 | 51 | 1016.0 |
| 20260905175320 | 91 | 173 | 4.3 | 7.0 | 0.00 | 0.00 | 0.00 | 52 | 1016.0 |
| 20260905174815 | 91 | 189 | 6.1 | 7.0 | 0.00 | 0.00 | 0.00 | 51 | 1015.9 |
| 20260905174311 | 91 | 178 | 4.3 | 5.2 | 0.00 | 0.00 | 0.00 | 51 | 1016.2 |
| 20260905173807 | 91 | 144 | 5.2 | 6.1 | 0.00 | 0.00 | 0.00 | 52 | 1016.3 |
| 20260905173303 | 91 | 170 | 4.3 | 6.1 | 0.00 | 0.00 | 0.00 | 55 | 1016.2 |
| 20260905172803 | 91 | 76 | 7.8 | 9.6 | 0.00 | 0.00 | 0.00 | 54 | 1016.2 |
| 20260905172301 | 90 | 110 | 1.7 | 3.5 | 0.00 | 0.00 | 0.00 | 56 | 1016.5 |
| 20260905171757 | 91 | 158 | 3.5 | 6.1 | 0.00 | 0.00 | 0.00 | 55 | 1016.6 |
| 20260905171253 | 89 | 147 | 4.3 | 5.2 | 0.00 | 0.00 | 0.00 | 58 | 1016.7 |
| 20260905170750 | 91 | 68 | 1.7 | 2.6 | 0.00 | 0.00 | 0.00 | 58 | 1016.6 |
| 20260905170245 | 91 | 214 | 4.3 | 7.0 | 0.00 | 0.00 | 0.00 | 56 | 1016.8 |
| 20260905165744 | 89 | 125 | 3.5 | 6.1 | 0.00 | 0.00 | 0.00 | 60 | 1016.8 |
| 20260905165240 | 90 | 120 | 6.1 | 7.8 | 0.00 | 0.00 | 0.00 | 59 | 1016.7 |
| 20260905164734 | 89 | 192 | 4.3 | 5.2 | 0.00 | 0.00 | 0.00 | 62 | 1016.9 |
| 20260905164229 | 89 | 103 | 3.5 | 6.1 | 0.00 | 0.00 | 0.00 | 63 | 1016.7 |
| 20260905163725 | 88 | 162 | 5.2 | 6.1 | 0.00 | 0.00 | 0.00 | 65 | 1016.9 |
| 20260905163221 | 89 | 97 | 3.5 | 5.2 | 0.00 | 0.00 | 0.00 | 63 | 1017.0 |
| 20260905162717 | 88 | 209 | 5.2 | 7.0 | 0.00 | 0.00 | 0.00 | 65 | 1016.8 |
| 20260905162216 | 88 | 183 | 1.7 | 2.6 | 0.00 | 0.00 | 0.00 | 66 | 1016.9 |
| 20260905161711 | 89 | 120 | 5.2 | 7.0 | 0.00 | 0.00 | 0.00 | 65 | 1016.6 |
| 20260905161209 | 88 | 141 | 3.5 | 3.5 | 0.00 | 0.00 | 0.00 | 67 | 1016.8 |
| 20260905160708 | 88 | 128 | 1.7 | 1.7 | 0.00 | 0.00 | 0.00 | 67 | 1016.8 |
| 20260905160202 | 88 | 187 | 0.9 | 0.9 | 0.00 | 0.00 | 0.00 | 68 | 1016.8 |
| 20260905155701 | 86 | 167 | 4.3 | 6.1 | 0.00 | 0.00 | 0.00 | 69 | 1016.8 |
| 20260905155201 | 87 | 187 | 7.0 | 7.8 | 0.00 | 0.00 | 0.00 | 69 | 1016.8 |
| 20260905154656 | 86 | 170 | 4.3 | 6.1 | 0.00 | 0.00 | 0.00 | 70 | 1017.0 |
| 20260905154151 | 87 | 145 | 1.7 | 1.7 | 0.00 | 0.00 | 0.00 | 70 | 1016.7 |
| 20260905153648 | 87 | 172 | 3.5 | 5.2 | 0.00 | 0.00 | 0.00 | 70 | 1016.8 |
| 20260905153142 | 86 | 275 | 3.5 | 3.5 | 0.00 | 0.00 | 0.00 | 72 | 1016.8 |
| 20260905152637 | 86 | 155 | 5.2 | 6.1 | 0.00 | 0.00 | 0.00 | 72 | 1016.5 |
| 20260905152131 | 86 | 204 | 5.2 | 7.0 | 0.00 | 0.00 | 0.00 | 71 | 1016.8 |
| 20260905151626 | 86 | 180 | 4.3 | 5.2 | 0.00 | 0.00 | 0.00 | 71 | 1016.8 |
| 20260905151122 | 86 | 186 | 3.5 | 3.5 | 0.00 | 0.00 | 0.00 | 71 | 1016.9 |
| 20260905150617 | 85 | 207 | 0.9 | 0.9 | 0.00 | 0.00 | 0.00 | 74 | 1016.7 |
| 20260905150115 | 85 | 163 | 5.2 | 6.1 | 0.00 | 0.00 | 0.00 | 74 | 1016.8 |
| 20260905145609 | 84 | 208 | 1.7 | 2.6 | 0.00 | 0.00 | 0.00 | 78 | 1016.8 |
| 20260905145108 | 83 | 212 | 5.2 | 6.1 | 0.00 | 0.00 | 0.00 | 78 | 1016.8 |
| 20260905144603 | 84 | 164 | 5.2 | 6.1 | 0.00 | 0.00 | 0.00 | 76 | 1016.7 |
| 20260905144102 | 84 | 320 | 3.5 | 3.5 | 0.00 | 0.00 | 0.00 | 76 | 1016.6 |
| 20260905143601 | 84 | 111 | 0.9 | 1.7 | 0.00 | 0.00 | 0.00 | 82 | 1016.6 |
| 20260905143057 | 84 | 207 | 0.9 | 0.9 | 0.00 | 0.00 | 0.00 | 81 | 1016.6 |
| 20260905142555 | 83 | 112 | 1.7 | 1.7 | 0.00 | 0.00 | 0.00 | 83 | 1016.7 |
| 20260905142050 | 83 | 100 | 3.5 | 3.5 | 0.00 | 0.00 | 0.00 | 82 | 1016.6 |
| 20260905141545 | 82 | 215 | 4.3 | 5.2 | 0.00 | 0.00 | 0.00 | 84 | 1016.7 |
| 20260905141041 | 82 | 210 | 3.5 | 3.5 | 0.00 | 0.00 | 0.00 | 84 | 1016.8 |
| 20260905140536 | 82 | 229 | 3.5 | 3.5 | 0.00 | 0.00 | 0.00 | 85 | 1016.7 |
| 20260905140035 | 81 | 190 | 2.6 | 3.5 | 0.00 | 0.00 | 0.00 | 86 | 1016.5 |
| 20260905135530 | 81 | 178 | 0.9 | 0.9 | 0.00 | 0.00 | 0.00 | 87 | 1016.8 |
| 20260905135025 | 81 | 180 | 4.3 | 5.2 | 0.00 | 0.00 | 0.00 | 87 | 1016.5 |
| 20260905134520 | 82 | 191 | 1.7 | 1.7 | 0.00 | 0.00 | 0.00 | 87 | 1016.5 |
| 20260905134019 | 82 | 217 | 1.7 | 1.7 | 0.00 | 0.00 | 0.00 | 87 | 1016.4 |
| 20260905133514 | 82 | 266 | 0.9 | 0.9 | 0.00 | 0.00 | 0.00 | 87 | 1016.4 |
| 20260905133013 | 81 | 124 | 2.6 | 2.6 | 0.00 | 0.00 | 0.00 | 89 | 1016.4 |
| 20260905132509 | 81 | 100 | 1.7 | 2.6 | 0.00 | 0.00 | 0.00 | 89 | 1016.4 |
| 20260905132009 | 80 | 119 | 2.6 | 2.6 | 0.00 | 0.00 | 0.00 | 90 | 1016.3 |
| 20260905131504 | 80 | 150 | 1.7 | 1.7 | 0.00 | 0.00 | 0.00 | 89 | 1016.2 |
| 20260905130959 | 80 | 90 | 0.0 | 0.0 | 0.00 | 0.00 | 0.00 | 90 | 1016.2 |
| 20260905123621 | 77 | 132 | 0.0 | 0.0 | 0.00 | 0.00 | 0.00 | 94 | 1015.6 |
| 20260905123118 | 77 | 132 | 0.0 | 0.0 | 0.00 | 0.00 | 0.00 | 94 | 1015.6 |
| 20260905122612 | 77 | 132 | 0.0 | 0.0 | 0.00 | 0.00 | 0.00 | 94 | 1015.6 |
| 20260905122106 | 77 | 148 | 0.0 | 0.0 | 0.00 | 0.00 | 0.00 | 94 | 1015.8 |
| 20260905121556 | 77 | 149 | 2.6 | 2.6 | 0.00 | 0.00 | 0.00 | 94 | 1015.7 |
| 20260905121051 | 77 | 109 | 0.9 | 0.9 | 0.00 | 0.00 | 0.00 | 94 | 1015.6 |
| 20260905120550 | 77 | 98 | 0.0 | 0.0 | 0.00 | 0.00 | 0.00 | 94 | 1015.5 |
| 20260905120046 | 77 | 100 | 0.0 | 0.0 | 0.00 | 0.00 | 0.00 | 94 | 1015.4 |
| 20260905115544 | 78 | 136 | 0.0 | 0.0 | 0.00 | 0.00 | 0.00 | 93 | 1015.4 |
| 20260905115039 | 78 | 136 | 0.0 | 0.0 | 0.00 | 0.00 | 0.00 | 93 | 1015.3 |
| 20260905114538 | 78 | 136 | 0.0 | 0.0 | 0.00 | 0.00 | 0.00 | 93 | 1015.4 |
| 20260905114037 | 78 | 136 | 0.0 | 0.0 | 0.00 | 0.00 | 0.00 | 93 | 1015.5 |
| 20260905113532 | 78 | 134 | 0.0 | 0.0 | 0.00 | 0.00 | 0.00 | 93 | 1015.5 |
| 20260905113028 | 78 | 133 | 0.0 | 0.0 | 0.00 | 0.00 | 0.00 | 93 | 1015.4 |
| 20260905112523 | 78 | 162 | 0.0 | 0.0 | 0.00 | 0.00 | 0.00 | 93 | 1015.3 |
| 20260905112019 | 78 | 160 | 0.0 | 0.0 | 0.00 | 0.00 | 0.00 | 93 | 1015.3 |
| 20260905111513 | 78 | 189 | 0.0 | 0.0 | 0.00 | 0.00 | 0.00 | 93 | 1015.4 |
| 20260905111013 | 78 | 206 | 0.0 | 0.0 | 0.00 | 0.00 | 0.00 | 93 | 1015.4 |
| 20260905110512 | 78 | 220 | 0.0 | 0.0 | 0.00 | 0.00 | 0.00 | 93 | 1015.3 |
| 20260905110007 | 78 | 133 | 0.0 | 0.0 | 0.00 | 0.00 | 0.00 | 92 | 1015.4 |
| 20260905105502 | 78 | 143 | 0.0 | 0.0 | 0.00 | 0.00 | 0.00 | 92 | 1015.3 |
| 20260905105001 | 78 | 223 | 0.0 | 0.0 | 0.00 | 0.00 | 0.00 | 92 | 1015.4 |
| 20260905104456 | 78 | 234 | 0.0 | 0.0 | 0.00 | 0.00 | 0.00 | 92 | 1015.3 |
| 20260905103951 | 78 | 218 | 0.0 | 0.0 | 0.00 | 0.00 | 0.00 | 92 | 1015.2 |
| 20260905103446 | 78 | 182 | 0.0 | 0.0 | 0.00 | 0.00 | 0.00 | 92 | 1015.1 |
| 20260905102942 | 78 | 191 | 0.0 | 0.0 | 0.00 | 0.00 | 0.00 | 92 | 1015.2 |
| 20260905102438 | 78 | 224 | 0.0 | 0.0 | 0.00 | 0.00 | 0.00 | 92 | 1015.1 |
| 20260905101933 | 78 | 226 | 0.0 | 0.0 | 0.00 | 0.00 | 0.00 | 92 | 1015.3 |
| 20260905101432 | 78 | 231 | 0.0 | 0.0 | 0.00 | 0.00 | 0.00 | 92 | 1015.2 |
| 20260905100927 | 78 | 230 | 0.0 | 0.0 | 0.00 | 0.00 | 0.00 | 92 | 1015.3 |
| 20260905100422 | 78 | 194 | 0.0 | 0.0 | 0.00 | 0.00 | 0.00 | 92 | 1015.1 |
| 20260905095921 | 78 | 211 | 0.0 | 0.0 | 0.00 | 0.00 | 0.00 | 92 | 1015.1 |
| 20260905095416 | 78 | 208 | 0.0 | 0.9 | 0.00 | 0.00 | 0.00 | 92 | 1015.0 |
| 20260905094910 | 78 | 187 | 0.0 | 0.9 | 0.00 | 0.00 | 0.00 | 91 | 1015.0 |
| 20260905094406 | 78 | 239 | 0.0 | 0.0 | 0.00 | 0.00 | 0.00 | 91 | 1015.1 |
| 20260905093904 | 78 | 276 | 0.0 | 0.0 | 0.00 | 0.00 | 0.00 | 91 | 1015.1 |
| 20260905093355 | 78 | 276 | 0.0 | 0.0 | 0.00 | 0.00 | 0.00 | 91 | 1015.0 |
| 20260905092850 | 78 | 277 | 0.0 | 0.0 | 0.00 | 0.00 | 0.00 | 90 | 1015.1 |
| 20260905092345 | 78 | 277 | 0.0 | 0.0 | 0.00 | 0.00 | 0.00 | 90 | 1015.1 |
| 20260905091840 | 78 | 276 | 0.0 | 0.0 | 0.00 | 0.00 | 0.00 | 90 | 1015.2 |
| 20260905091340 | 78 | 238 | 0.0 | 0.0 | 0.00 | 0.00 | 0.00 | 90 | 1015.2 |
| 20260905090838 | 79 | 219 | 0.0 | 0.0 | 0.00 | 0.00 | 0.00 | 90 | 1015.1 |
| 20260905090335 | 79 | 184 | 0.0 | 0.0 | 0.00 | 0.00 | 0.00 | 89 | 1015.0 |
| 20260905085834 | 79 | 204 | 0.0 | 0.0 | 0.00 | 0.00 | 0.00 | 89 | 1015.0 |
| 20260905085334 | 79 | 194 | 0.9 | 0.9 | 0.00 | 0.00 | 0.00 | 89 | 1015.2 |
| 20260905084830 | 79 | 121 | 2.6 | 2.6 | 0.00 | 0.00 | 0.00 | 89 | 1015.2 |
| 20260905084329 | 79 | 171 | 0.9 | 0.9 | 0.00 | 0.00 | 0.00 | 88 | 1015.1 |
| 20260905083829 | 79 | 145 | 1.7 | 1.7 | 0.00 | 0.00 | 0.00 | 88 | 1015.2 |
| 20260905083325 | 79 | 172 | 2.6 | 2.6 | 0.00 | 0.00 | 0.00 | 88 | 1015.3 |
| 20260905082820 | 79 | 178 | 1.7 | 1.7 | 0.00 | 0.00 | 0.00 | 88 | 1015.2 |
| 20260905082316 | 79 | 196 | 2.6 | 2.6 | 0.00 | 0.00 | 0.00 | 87 | 1015.1 |
| 20260905081811 | 79 | 113 | 3.5 | 5.2 | 0.00 | 0.00 | 0.00 | 87 | 1015.3 |
| 20260905081306 | 79 | 199 | 1.7 | 1.7 | 0.00 | 0.00 | 0.00 | 87 | 1015.4 |
| 20260905080805 | 79 | 166 | 2.6 | 2.6 | 0.00 | 0.00 | 0.00 | 87 | 1015.2 |
| 20260905080300 | 80 | 166 | 2.6 | 2.6 | 0.00 | 0.00 | 0.00 | 87 | 1015.3 |
| 20260905075758 | 80 | 145 | 1.7 | 2.6 | 0.00 | 0.00 | 0.00 | 87 | 1015.3 |
| 20260905075253 | 80 | 191 | 2.6 | 3.5 | 0.00 | 0.00 | 0.00 | 87 | 1015.5 |
| 20260905074752 | 79 | 204 | 4.3 | 7.0 | 0.00 | 0.00 | 0.00 | 87 | 1015.3 |
| 20260905074248 | 80 | 187 | 4.3 | 6.1 | 0.00 | 0.00 | 0.00 | 86 | 1015.4 |
| 20260905073743 | 80 | 176 | 2.6 | 2.6 | 0.00 | 0.00 | 0.00 | 86 | 1015.4 |
| 20260905073239 | 80 | 168 | 2.6 | 2.6 | 0.00 | 0.00 | 0.00 | 86 | 1015.5 |
| 20260905072738 | 80 | 161 | 5.2 | 6.1 | 0.00 | 0.00 | 0.00 | 85 | 1015.5 |
| 20260905072234 | 80 | 189 | 5.2 | 7.0 | 0.00 | 0.00 | 0.00 | 85 | 1015.5 |
| 20260905071730 | 80 | 114 | 3.5 | 5.2 | 0.00 | 0.00 | 0.00 | 85 | 1015.7 |
| 20260905071226 | 80 | 175 | 4.3 | 6.1 | 0.00 | 0.00 | 0.00 | 85 | 1015.7 |
| 20260905070721 | 80 | 168 | 1.7 | 1.7 | 0.00 | 0.00 | 0.00 | 85 | 1015.5 |
| 20260905070217 | 80 | 168 | 2.6 | 5.2 | 0.00 | 0.00 | 0.00 | 85 | 1015.7 |
| 20260905065715 | 80 | 191 | 3.5 | 3.5 | 0.00 | 0.00 | 0.00 | 84 | 1015.8 |
| 20260905065210 | 80 | 141 | 1.7 | 2.6 | 0.00 | 0.00 | 0.00 | 84 | 1015.6 |
| 20260905064705 | 80 | 149 | 2.6 | 2.6 | 0.00 | 0.00 | 0.00 | 83 | 1015.8 |
| 20260905064201 | 80 | 194 | 2.6 | 2.6 | 0.00 | 0.00 | 0.00 | 83 | 1015.7 |
| 20260905063659 | 80 | 174 | 3.5 | 3.5 | 0.00 | 0.00 | 0.00 | 83 | 1015.7 |
| 20260905063155 | 80 | 133 | 2.6 | 2.6 | 0.00 | 0.00 | 0.00 | 82 | 1015.8 |
| 20260905062651 | 80 | 144 | 3.5 | 3.5 | 0.00 | 0.00 | 0.00 | 82 | 1015.8 |
| 20260905062150 | 80 | 141 | 2.6 | 2.6 | 0.00 | 0.00 | 0.00 | 81 | 1015.8 |
| 20260905061644 | 80 | 109 | 2.6 | 3.5 | 0.00 | 0.00 | 0.00 | 81 | 1015.8 |
| 20260905061138 | 80 | 156 | 1.7 | 2.6 | 0.00 | 0.00 | 0.00 | 80 | 1015.8 |
| 20260905060634 | 80 | 140 | 4.3 | 5.2 | 0.00 | 0.00 | 0.00 | 80 | 1016.0 |
| 20260905060131 | 81 | 146 | 1.7 | 1.7 | 0.00 | 0.00 | 0.00 | 80 | 1015.8 |
| 20260905055628 | 81 | 149 | 1.7 | 1.7 | 0.00 | 0.00 | 0.00 | 80 | 1016.0 |
| 20260905055124 | 81 | 118 | 2.6 | 2.6 | 0.00 | 0.00 | 0.00 | 79 | 1015.8 |
| 20260905054620 | 81 | 122 | 3.5 | 3.5 | 0.00 | 0.00 | 0.00 | 79 | 1015.7 |
| 20260905054115 | 81 | 169 | 3.5 | 5.2 | 0.00 | 0.00 | 0.00 | 78 | 1015.8 |
| 20260905053615 | 81 | 99 | 3.5 | 5.2 | 0.00 | 0.00 | 0.00 | 78 | 1015.9 |
| 20260905053110 | 81 | 169 | 2.6 | 2.6 | 0.00 | 0.00 | 0.00 | 78 | 1015.7 |
| 20260905052609 | 81 | 152 | 2.6 | 3.5 | 0.00 | 0.00 | 0.00 | 77 | 1015.9 |
| 20260905052104 | 81 | 171 | 3.5 | 5.2 | 0.00 | 0.00 | 0.00 | 77 | 1015.8 |
| 20260905051600 | 81 | 106 | 1.7 | 2.6 | 0.00 | 0.00 | 0.00 | 77 | 1015.9 |
| 20260905051056 | 82 | 141 | 2.6 | 3.5 | 0.00 | 0.00 | 0.00 | 76 | 1016.1 |
| 20260905050552 | 82 | 130 | 2.6 | 2.6 | 0.00 | 0.00 | 0.00 | 76 | 1016.0 |
| 20260905050048 | 82 | 154 | 5.2 | 6.1 | 0.00 | 0.06 | 0.06 | 75 | 1016.0 |
| 20260905045543 | 82 | 176 | 1.7 | 2.6 | 0.00 | 0.06 | 0.06 | 76 | 1015.8 |
| 20260905045038 | 82 | 129 | 2.6 | 2.6 | 0.00 | 0.06 | 0.06 | 75 | 1016.0 |
| 20260905044532 | 82 | 107 | 4.3 | 6.1 | 0.00 | 0.06 | 0.06 | 75 | 1016.0 |
| 20260905044027 | 82 | 169 | 0.9 | 0.9 | 0.00 | 0.06 | 0.06 | 75 | 1015.8 |
| 20260905043526 | 82 | 155 | 2.6 | 5.2 | 0.00 | 0.06 | 0.06 | 75 | 1015.8 |
| 20260905043016 | 82 | 155 | 3.5 | 3.5 | 0.00 | 0.06 | 0.06 | 75 | 1015.7 |
| 20260905042514 | 82 | 110 | 2.6 | 3.5 | 0.00 | 0.06 | 0.06 | 75 | 1016.0 |
| 20260905042004 | 82 | 113 | 1.7 | 2.6 | 0.00 | 0.06 | 0.06 | 75 | 1015.9 |
| 20260905041459 | 82 | 143 | 3.5 | 5.2 | 0.00 | 0.06 | 0.06 | 75 | 1015.8 |
| 20260905040954 | 82 | 115 | 5.2 | 6.1 | 0.00 | 0.06 | 0.06 | 75 | 1015.9 |
| 20260905040448 | 82 | 151 | 1.7 | 5.2 | 0.00 | 0.06 | 0.06 | 74 | 1015.7 |
| 20260905035947 | 82 | 127 | 1.7 | 2.6 | 0.00 | 0.06 | 0.06 | 74 | 1015.8 |
| 20260905035442 | 83 | 131 | 0.0 | 0.0 | 0.00 | 0.06 | 0.06 | 74 | 1015.8 |
| 20260905034940 | 83 | 131 | 1.7 | 2.6 | 0.00 | 0.06 | 0.06 | 73 | 1015.7 |
| 20260905034435 | 83 | 133 | 0.9 | 1.7 | 0.00 | 0.06 | 0.06 | 73 | 1015.9 |
| 20260905033933 | 83 | 165 | 2.6 | 3.5 | 0.00 | 0.06 | 0.06 | 73 | 1015.8 |
| 20260905033428 | 83 | 107 | 1.7 | 2.6 | 0.00 | 0.06 | 0.06 | 73 | 1015.8 |
| 20260905032928 | 83 | 124 | 0.9 | 0.9 | 0.00 | 0.06 | 0.06 | 73 | 1016.0 |
| 20260905032424 | 83 | 143 | 0.0 | 0.0 | 0.00 | 0.06 | 0.06 | 73 | 1015.7 |
| 20260905031919 | 83 | 125 | 0.9 | 1.7 | 0.00 | 0.06 | 0.06 | 73 | 1015.8 |
| 20260905031415 | 83 | 131 | 1.7 | 1.7 | 0.00 | 0.06 | 0.06 | 73 | 1015.8 |
| 20260905030910 | 83 | 130 | 1.7 | 2.6 | 0.00 | 0.06 | 0.06 | 73 | 1015.5 |
| 20260905030405 | 84 | 124 | 0.9 | 1.7 | 0.00 | 0.06 | 0.06 | 73 | 1015.6 |
| 20260905025904 | 84 | 83 | 3.5 | 3.5 | 0.00 | 0.06 | 0.06 | 73 | 1015.6 |
| 20260905025354 | 84 | 99 | 3.5 | 3.5 | 0.00 | 0.06 | 0.06 | 73 | 1015.4 |
| 20260905024850 | 84 | 119 | 0.9 | 0.9 | 0.00 | 0.06 | 0.06 | 73 | 1015.2 |
| 20260905024344 | 84 | 114 | 4.3 | 5.2 | 0.00 | 0.06 | 0.06 | 72 | 1015.5 |
| 20260905023840 | 84 | 110 | 3.5 | 3.5 | 0.00 | 0.06 | 0.06 | 72 | 1015.3 |
| 20260905023335 | 84 | 126 | 2.6 | 2.6 | 0.00 | 0.06 | 0.06 | 72 | 1015.4 |
| 20260905022833 | 84 | 127 | 1.7 | 1.7 | 0.00 | 0.06 | 0.06 | 72 | 1015.2 |
| 20260905022329 | 84 | 87 | 3.5 | 3.5 | 0.00 | 0.06 | 0.06 | 72 | 1015.0 |
| 20260905021825 | 85 | 92 | 1.7 | 2.6 | 0.00 | 0.06 | 0.06 | 71 | 1015.2 |
| 20260905021320 | 84 | 115 | 3.5 | 3.5 | 0.00 | 0.06 | 0.06 | 72 | 1015.0 |
| 20260905020820 | 85 | 113 | 0.9 | 1.7 | 0.00 | 0.06 | 0.06 | 72 | 1015.1 |
| 20260905020315 | 85 | 190 | 3.5 | 3.5 | 0.00 | 0.06 | 0.06 | 71 | 1014.9 |
| 20260905015813 | 85 | 97 | 0.9 | 1.7 | 0.00 | 0.06 | 0.06 | 71 | 1014.9 |
| 20260905015308 | 85 | 171 | 4.3 | 5.2 | 0.00 | 0.06 | 0.06 | 71 | 1015.0 |
| 20260905014807 | 85 | 96 | 3.5 | 5.2 | 0.00 | 0.06 | 0.06 | 71 | 1015.0 |
| 20260905014303 | 85 | 97 | 3.5 | 5.2 | 0.00 | 0.06 | 0.06 | 71 | 1014.8 |
| 20260905013758 | 85 | 131 | 2.6 | 5.2 | 0.00 | 0.06 | 0.06 | 71 | 1014.8 |
| 20260905013254 | 85 | 115 | 2.6 | 2.6 | 0.00 | 0.06 | 0.06 | 71 | 1014.8 |
| 20260905012749 | 85 | 96 | 5.2 | 7.8 | 0.00 | 0.06 | 0.06 | 70 | 1014.8 |
| 20260905012245 | 85 | 120 | 2.6 | 3.5 | 0.00 | 0.06 | 0.06 | 71 | 1014.6 |
| 20260905011736 | 85 | 100 | 2.6 | 3.5 | 0.00 | 0.06 | 0.06 | 71 | 1014.5 |
| 20260905011226 | 85 | 113 | 3.5 | 3.5 | 0.00 | 0.06 | 0.06 | 72 | 1014.7 |
| 20260905010726 | 85 | 87 | 0.9 | 0.9 | 0.00 | 0.06 | 0.06 | 74 | 1014.5 |
| 20260905010221 | 85 | 62 | 2.6 | 2.6 | 0.00 | 0.06 | 0.06 | 74 | 1014.4 |
| 20260905005718 | 85 | 88 | 5.2 | 6.1 | 0.00 | 0.06 | 0.06 | 74 | 1014.4 |
| 20260905005213 | 85 | 135 | 1.7 | 1.7 | 0.00 | 0.06 | 0.06 | 73 | 1014.5 |
| 20260905004707 | 85 | 105 | 4.3 | 6.1 | 0.00 | 0.06 | 0.06 | 73 | 1014.3 |
| 20260905004203 | 85 | 112 | 0.9 | 1.7 | 0.00 | 0.06 | 0.06 | 74 | 1014.4 |
| 20260905003658 | 85 | 78 | 4.3 | 5.2 | 0.00 | 0.06 | 0.06 | 73 | 1014.2 |
| 20260905003154 | 86 | 85 | 4.3 | 6.1 | 0.00 | 0.06 | 0.06 | 72 | 1014.3 |
| 20260905002649 | 86 | 78 | 2.6 | 2.6 | 0.00 | 0.06 | 0.06 | 72 | 1014.2 |
| 20260905002148 | 86 | 45 | 0.9 | 0.9 | 0.00 | 0.06 | 0.06 | 72 | 1014.0 |
| 20260905001644 | 86 | 96 | 2.6 | 2.6 | 0.00 | 0.06 | 0.06 | 72 | 1013.9 |
| 20260905001143 | 86 | 83 | 2.6 | 3.5 | 0.00 | 0.06 | 0.06 | 72 | 1013.9 |
| 20260905000638 | 86 | 81 | 6.1 | 7.8 | 0.00 | 0.06 | 0.06 | 71 | 1014.2 |
| 20260905000134 | 86 | 51 | 2.6 | 3.5 | 0.00 | 0.06 | 0.06 | 71 | 1014.1 |
| 20260904235633 | 86 | 103 | 5.2 | 6.1 | 0.00 | 0.06 | 0.06 | 71 | 1014.1 |
| 20260904235133 | 86 | 62 | 4.3 | 7.0 | 0.00 | 0.06 | 0.06 | 72 | 1014.1 |
| 20260904234628 | 86 | 99 | 1.7 | 2.6 | 0.00 | 0.06 | 0.06 | 72 | 1014.0 |
| 20260904234124 | 86 | 101 | 2.6 | 7.8 | 0.00 | 0.06 | 0.06 | 72 | 1014.0 |
| 20260904233619 | 85 | 92 | 5.2 | 7.0 | 0.00 | 0.06 | 0.06 | 72 | 1014.1 |
| 20260904233115 | 84 | 111 | 4.3 | 6.1 | 0.00 | 0.06 | 0.06 | 73 | 1014.0 |
| 20260904232612 | 84 | 48 | 4.3 | 5.2 | 0.00 | 0.06 | 0.06 | 73 | 1013.9 |
| 20260904232108 | 83 | 88 | 4.3 | 6.1 | 0.00 | 0.06 | 0.06 | 75 | 1013.9 |
| 20260904231604 | 83 | 89 | 5.2 | 6.1 | 0.00 | 0.06 | 0.06 | 73 | 1014.1 |
| 20260904231104 | 83 | 92 | 7.0 | 8.7 | 0.00 | 0.06 | 0.06 | 73 | 1014.0 |
| 20260904230603 | 84 | 36 | 3.5 | 6.1 | 0.00 | 0.06 | 0.06 | 71 | 1014.0 |
| 20260904230054 | 84 | 105 | 3.5 | 6.1 | 0.00 | 0.06 | 0.06 | 69 | 1014.1 |
| 20260904225551 | 85 | 60 | 7.0 | 9.6 | 0.00 | 0.06 | 0.06 | 66 | 1014.0 |
| 20260904225046 | 86 | 88 | 7.0 | 13.0 | 0.00 | 0.06 | 0.06 | 67 | 1013.9 |
| 20260904224541 | 87 | 103 | 11.3 | 16.5 | 0.00 | 0.06 | 0.06 | 66 | 1014.0 |
| 20260904224041 | 90 | 107 | 3.5 | 5.2 | 0.00 | 0.06 | 0.06 | 60 | 1014.1 |
| 20260904223539 | 93 | 105 | 5.2 | 6.1 | 0.00 | 0.06 | 0.06 | 51 | 1014.0 |
| 20260904223036 | 93 | 176 | 4.3 | 6.1 | 0.00 | 0.06 | 0.06 | 50 | 1013.8 |
| 20260904222531 | 92 | 172 | 2.6 | 3.5 | 0.00 | 0.06 | 0.06 | 51 | 1014.1 |
| 20260904222026 | 92 | 163 | 6.1 | 7.8 | 0.00 | 0.06 | 0.06 | 51 | 1013.8 |
| 20260904221520 | 93 | 154 | 7.0 | 8.7 | 0.00 | 0.06 | 0.06 | 53 | 1013.7 |
| 20260904221015 | 92 | 204 | 7.8 | 9.6 | 0.00 | 0.06 | 0.06 | 53 | 1013.8 |
| 20260904220515 | 92 | 108 | 5.2 | 7.0 | 0.00 | 0.06 | 0.06 | 55 | 1013.9 |
| 20260904220011 | 93 | 133 | 7.8 | 7.8 | 0.00 | 0.06 | 0.06 | 54 | 1014.1 |
| 20260904215505 | 93 | 164 | 5.2 | 7.8 | 0.00 | 0.06 | 0.06 | 52 | 1013.9 |
| 20260904215001 | 92 | 154 | 5.2 | 6.1 | 0.00 | 0.06 | 0.06 | 52 | 1014.0 |
| 20260904214456 | 93 | 154 | 1.7 | 3.5 | 0.00 | 0.06 | 0.06 | 51 | 1013.9 |
| 20260904213951 | 93 | 196 | 3.5 | 5.2 | 0.00 | 0.06 | 0.06 | 50 | 1014.3 |
| 20260904213449 | 93 | 72 | 2.6 | 5.2 | 0.00 | 0.06 | 0.06 | 48 | 1014.4 |
| 20260904212946 | 93 | 167 | 6.1 | 7.8 | 0.00 | 0.06 | 0.06 | 49 | 1014.3 |
| 20260904212446 | 92 | 71 | 4.3 | 7.0 | 0.00 | 0.06 | 0.06 | 50 | 1014.3 |
| 20260904211940 | 93 | 171 | 6.1 | 7.0 | 0.00 | 0.06 | 0.06 | 49 | 1014.6 |
| 20260904211435 | 93 | 118 | 4.3 | 6.1 | 0.00 | 0.06 | 0.06 | 49 | 1014.4 |
| 20260904210931 | 92 | 179 | 3.5 | 3.5 | 0.00 | 0.06 | 0.06 | 51 | 1014.6 |
| 20260904210430 | 90 | 211 | 0.9 | 1.7 | 0.00 | 0.06 | 0.06 | 54 | 1014.4 |
| 20260904205926 | 91 | 145 | 5.2 | 6.1 | 0.00 | 0.06 | 0.06 | 53 | 1014.7 |
| 20260904205421 | 91 | 101 | 3.5 | 5.2 | 0.00 | 0.06 | 0.06 | 51 | 1014.7 |
| 20260904204919 | 91 | 152 | 3.5 | 5.2 | 0.00 | 0.06 | 0.06 | 55 | 1014.9 |
| 20260904204419 | 90 | 207 | 3.5 | 5.2 | 0.00 | 0.06 | 0.06 | 54 | 1014.9 |
| 20260904203915 | 90 | 192 | 4.3 | 5.2 | 0.00 | 0.06 | 0.06 | 55 | 1015.1 |
| 20260904203411 | 91 | 144 | 6.1 | 7.8 | 0.00 | 0.06 | 0.06 | 54 | 1015.0 |
| 20260904202906 | 91 | 202 | 3.5 | 3.5 | 0.00 | 0.06 | 0.06 | 51 | 1015.3 |
| 20260904202403 | 90 | 191 | 6.1 | 7.0 | 0.00 | 0.06 | 0.06 | 53 | 1015.3 |
| 20260904201858 | 90 | 144 | 1.7 | 1.7 | 0.00 | 0.06 | 0.06 | 53 | 1015.3 |
| 20260904201354 | 91 | 197 | 3.5 | 3.5 | 0.00 | 0.06 | 0.06 | 54 | 1015.1 |
| 20260904200848 | 91 | 111 | 3.5 | 5.2 | 0.00 | 0.06 | 0.06 | 56 | 1015.3 |
| 20260904200347 | 89 | 170 | 1.7 | 1.7 | 0.00 | 0.06 | 0.06 | 57 | 1015.4 |
| 20260904195841 | 90 | 135 | 8.7 | 9.6 | 0.00 | 0.06 | 0.06 | 57 | 1015.5 |
| 20260904195340 | 91 | 136 | 7.8 | 7.8 | 0.00 | 0.06 | 0.06 | 56 | 1015.5 |
| 20260904194835 | 90 | 96 | 2.6 | 3.5 | 0.00 | 0.06 | 0.06 | 53 | 1015.5 |
| 20260904194329 | 89 | 210 | 4.3 | 6.1 | 0.00 | 0.06 | 0.06 | 56 | 1015.5 |
| 20260904193824 | 89 | 174 | 5.2 | 7.0 | 0.00 | 0.06 | 0.06 | 55 | 1015.7 |
| 20260904193320 | 89 | 159 | 6.1 | 7.8 | 0.00 | 0.06 | 0.06 | 53 | 1015.8 |
| 20260904192815 | 88 | 251 | 5.2 | 6.1 | 0.00 | 0.06 | 0.06 | 56 | 1015.7 |
| 20260904192310 | 88 | 209 | 6.1 | 7.0 | 0.00 | 0.06 | 0.06 | 58 | 1015.9 |
| 20260904191807 | 89 | 148 | 6.1 | 7.0 | 0.00 | 0.06 | 0.06 | 56 | 1015.8 |
| 20260904191303 | 87 | 151 | 3.5 | 5.2 | 0.00 | 0.06 | 0.06 | 58 | 1016.0 |
| 20260904190759 | 88 | 184 | 9.6 | 12.2 | 0.00 | 0.06 | 0.06 | 56 | 1016.0 |
| 20260904190255 | 87 | 148 | 6.1 | 8.7 | 0.00 | 0.06 | 0.06 | 57 | 1016.2 |
| 20260904185751 | 87 | 101 | 3.5 | 5.2 | 0.00 | 0.06 | 0.06 | 55 | 1016.4 |
| 20260904185246 | 87 | 145 | 4.3 | 6.1 | 0.00 | 0.06 | 0.06 | 60 | 1016.3 |
| 20260904184745 | 87 | 176 | 7.0 | 7.8 | 0.00 | 0.06 | 0.06 | 62 | 1016.4 |
| 20260904184241 | 86 | 209 | 7.8 | 8.7 | 0.00 | 0.06 | 0.06 | 65 | 1016.5 |
| 20260904183736 | 86 | 197 | 6.1 | 7.8 | 0.00 | 0.06 | 0.06 | 68 | 1016.4 |
| 20260904183231 | 86 | 192 | 7.0 | 8.7 | 0.00 | 0.06 | 0.06 | 69 | 1016.5 |